Home   Weather   28°01'N, 81°43'W   Past weeks
Flag for USA

Past Weather in 28°01'N, 81°43'W, USA — Yesterday and Last 2 Weeks

Now
72 °F

Mostly cloudy.


Feels Like: 76 °F
Forecast: 67 / 57 °F
Wind: 12 mph from Northeast

Location: Lakeland Regional

Current Time: Mar 18, 2019 at 4:13:52 pm

Latest Report: Mar 18, 2019 at 2:50 pm


Visibility: 10 mi

Pressure: 30.08 "Hg

Humidity: 57%

Dew Point: 55 °F

Location of 28°01'N, 81°43'WLocation

Past Weather in 28°01'N, 81°43'W — Graph

°F

28°01'N, 81°43'W Temperature Yesterday

Maximum temperature yesterday: 73 °F (at 2:50 pm)
Minimum temperature yesterday: 61 °F (at 4:15 am)
Average temperature yesterday: 64 °F

High & Low Weather Summary for the Past Weeks

 TemperatureHumidityPressure
High84 °F (Mar 3, 2:45 pm)100% (Mar 4, 12:35 am)30.38 "Hg (Mar 4, 12:35 am)
Low39 °F (Mar 6, 6:54 am)22% (Mar 6, 4:50 pm)29.89 "Hg (Mar 3, 4:47 pm)
Average66 °F74%30.15 "Hg
* Reported Mar 3 1:50 pm — Mar 18 2:50 pm, 28°01'N, 81°43'W. Weather by CustomWeather, © 2019

Note: Actual official high and low records may vary slightly from our data, if they occured in-between our weather recording intervals... More about our weather records

Advertising

28°01'N, 81°43'W Weather History for the Previous 24 Hours

Scroll right to see more
 ConditionsComfort  
Time TempWeatherWind HumidityBarometerVisibility
2:50 pm
Mon, Mar 18
72 °FMostly cloudy.12 mph57%30.08 "Hg10 mi
1:50 pm68 °FPartly sunny.12 mph60%30.13 "Hg10 mi
12:50 pm68 °FScattered clouds.12 mph60%30.14 "Hg10 mi
11:50 am66 °FScattered clouds.12 mph60%30.14 "Hg10 mi
10:50 am64 °FOvercast.12 mph64%30.14 "Hg10 mi
9:50 am61 °FOvercast.12 mph72%30.12 "Hg10 mi
8:50 am59 °FOvercast.8 mph77%30.11 "Hg10 mi
7:50 am57 °FOvercast.8 mph82%30.09 "Hg10 mi
6:50 am57 °FPassing clouds.12 mph82%30.06 "Hg10 mi
6:35 am57 °FOvercast.12 mph77%30.08 "Hg10 mi
5:50 am57 °FPassing clouds.7 mph82%30.06 "Hg10 mi
5:15 am55 °FOvercast.8 mph88%30.08 "Hg10 mi
3:35 am57 °FPassing clouds.8 mph77%30.09 "Hg10 mi
12:35 am59 °FPassing clouds.8 mph82%30.10 "Hg10 mi
12:15 am59 °FPassing clouds.10 mph82%30.12 "Hg10 mi
11:55 pm
Sun, Mar 17
61 °FCool.9 mph77%30.12 "Hg10 mi
11:35 pm61 °FCool.9 mph77%30.11 "HgN/A
10:55 pm61 °FPartly cloudy.7 mph77%30.12 "Hg10 mi
10:15 pm61 °FOvercast.12 mph83%30.12 "Hg10 mi
8:49 pm63 °FPartly cloudy.10 mph83%30.10 "Hg10 mi
7:50 pm64 °FPartly cloudy.12 mph78%30.09 "Hg10 mi
6:47 pm66 °FScattered clouds.8 mph73%30.06 "Hg10 mi
5:50 pm68 °FPassing clouds.7 mph73%30.04 "Hg10 mi
4:50 pm70 °FPartly sunny.12 mph69%30.04 "Hg10 mi
Weather by CustomWeather, © 2019

See weather overview